Content
SEND FEEDBACK

Daily
Averages
Monthly
Summary
United States of America

BANTRY, NORTH DAKOTA


Home > North America > United States > North Dakota
Elevation: 445 meters     Latitude: 48 30N     Longitude: 100 36W

WEATHER
 
SELECT A DAY
Number of Records: 85,723;   Date Range: 11/13/98 - 7/7/14
 
SHARE

PRINT THIS DATA

[ ← Previous Day ]
WEATHER ALMANAC - 18 FEBRUARY, 2013
[ Next Day → ]
[ °F ]   °C
Weather ElementAverageHighLow
Temperature-15.3 °C-8 °C (12:35 am)-24 °C (11:55 pm)
Dewpoint-18.1 °C-9 °C (12:35 am)-28 °C (11:55 pm)
Humidity79.9 %100 % (1:55 am)70 % (11:55 pm)
Barometer1015.6 hPa1024.7 hPa (11:35 pm)1003.4 hPa (12:35 am)
Wind Speed31.4 km/h44.4 km/h (6:15 am)
Wind Gust51.8 km/h (3:55 am)
Weather ElementAverage
Visibility9 km
Wind DirectionNNW (338.4 °)

Weather ElementTotal
Precipitation264.16 mm
Heating Degree Days34.3 (Base 18.3)
Averaged from 70 records on 18 February, 2013
WEATHER CONDITIONS BREAKOUT
WIND DIRECTION BREAKOUT
WEATHER BY HOUR - 18 FEBRUARY, 2013
[ °F ]   °C
Local TimeTemperatureDewpointHumidityBarometerVisibilityWind DirectionWind SpeedGust SpeedPrecipitationEventsConditions
12:35 AM-8 °C-9 °C93 %1003.4 hPa2.4 kmNorth (350°)33.3 km/h42.6 km/h16.76 mmSnowLight Snow
12:55 AM-8 °C-9 °C93 %1003.7 hPa1.3 kmNorth (350°)33.3 km/h31.24 mmSnowLight Snow
1:15 AM-8 °C-9 °C93 %1004.4 hPa0.8 kmNorth (350°)33.3 km/h13.97 mmSnowSnow
1:35 AM-8 °C-9 °C93 %1004.7 hPa0.8 kmNNW (340°)33.3 km/h25.4 mmSnowSnow
1:55 AM-9 °C-9 °C100 %1005.1 hPa1.3 kmNNW (340°)38.9 km/h35.05 mmSnowLight Snow
2:15 AM-9 °C-10 °C93 %1005.4 hPa1.6 kmNorth (350°)40.7 km/h48.1 km/h5.84 mmSnowLight Snow
2:35 AM-9 °C-10 °C93 %1005.8 hPa1.3 kmNorth (360°)40.7 km/h50.1 km/h12.7 mmSnowLight Snow
3:15 AM-9 °C-10 °C93 %1007.1 hPa2.4 kmNorth (360°)33.3 km/h38.9 km/h3.3 mmSnowLight Snow
3:35 AM-10 °C-11 °C93 %1007.5 hPa1.9 kmNorth (350°)29.6 km/h9.4 mmSnowLight Snow
3:55 AM-10 °C-12 °C86 %1007.8 hPa1.6 kmNorth (350°)42.6 km/h51.8 km/h24.89 mmSnowLight Snow
4:15 AM-11 °C-12 °C92 %1008.1 hPa1.3 kmNorth (350°)40.7 km/h51.8 km/h6.35 mmSnowLight Snow
4:35 AM-11 °C-13 °C85 %1008.8 hPa1.3 kmNorth (350°)35.2 km/h16.76 mmSnowLight Snow
4:55 AM-12 °C-13 °C92 %1009.1 hPa1.3 kmNorth (350°)33.3 km/h29.21 mmSnowLight Snow
5:15 AM-12 °C-14 °C85 %1009.5 hPa1.3 kmNNW (340°)40.7 km/h46.3 km/h7.87 mmSnowLight Snow
5:35 AM-12 °C-14 °C85 %1009.8 hPa3.2 kmNorth (350°)42.6 km/h50.1 km/h11.43 mmSnowLight Snow
5:55 AM-13 °C-15 °C85 %1010.5 hPa4 kmNorth (350°)37 km/h42.6 km/h12.19 mmRainLight Rain
6:15 AM-13 °C-15 °C85 %1010.5 hPa4 kmNorth (350°)44.4 km/h0.25 mmSnowLight Snow
6:35 AM-13 °C-16 °C79 %1011.2 hPa4.8 kmNNW (340°)35.2 km/h46.3 km/h0.51 mmRainLight Rain
6:55 AM-14 °C-17 °C79 %1011.5 hPa4 kmNorth (350°)37 km/h48.1 km/h0.76 mmRainLight Rain
7:15 AM-14 °C-17 °C79 %1011.9 hPa8 kmNNW (330°)27.8 km/h44.4 km/hHaze
7:35 AM-14 °C-18 °C72 %1012.2 hPa16.1 kmNNW (340°)25.9 km/hClear
7:55 AM-15 °C-18 °C78 %1012.5 hPa16.1 kmNW (320°)18.5 km/hScattered Clouds
8:15 AM-14 °C-17 °C79 %1012.9 hPa16.1 kmNW (320°)25.9 km/h33.3 km/hMostly Cloudy
8:35 AM-14 °C-16 °C85 %1013.2 hPa14.5 kmNNW (330°)27.8 km/h38.9 km/hOvercast
8:55 AM-14 °C-16 °C85 %1013.2 hPa8 kmNNW (330°)29.6 km/hSnowLight Snow
9:15 AM-14 °C-17 °C79 %1013.5 hPa1.6 kmNNW (340°)37 km/h44.4 km/hRainLight Rain
9:35 AM-14 °C-17 °C79 %1013.9 hPa3.2 kmNNW (330°)33.3 km/h46.3 km/hRainLight Rain
9:55 AM-14 °C-17 °C79 %1014.2 hPa1.9 kmNNW (330°)44.4 km/h51.8 km/h0.25 mmRainLight Rain
10:15 AM-14 °C-17 °C79 %1014.2 hPa2.9 kmNNW (340°)35.2 km/h50.1 km/hRainLight Rain
10:35 AM-15 °C-18 °C78 %1014.6 hPa4 kmNNW (330°)38.9 km/h46.3 km/hSnowLight Snow
10:55 AM-15 °C-18 °C78 %1014.9 hPa11.3 kmNNW (330°)29.6 km/h38.9 km/hScattered Clouds
11:15 AM-14 °C-18 °C72 %1015.2 hPa8 kmNNW (330°)38.9 km/hHaze
11:35 AM-15 °C-18 °C78 %1015.2 hPa4.8 kmNNW (330°)37 km/h51.8 km/hHaze
11:55 AM-15 °C-18 °C78 %1015.2 hPa1.9 kmNNW (330°)44.4 km/hSnowLight Snow
12:15 PM-15 °C-18 °C78 %1015.6 hPa4.8 kmNNW (340°)38.9 km/h46.3 km/hHaze
12:35 PM-15 °C-18 °C78 %1015.9 hPa4.8 kmNNW (340°)38.9 km/h50.1 km/hHaze
12:55 PM-15 °C-18 °C78 %1015.9 hPa9.7 kmNNW (340°)35.2 km/h44.4 km/hHaze
1:15 PM-14 °C-18 °C72 %1016.3 hPa11.3 kmNNW (340°)31.5 km/h40.7 km/hPartly Cloudy
1:35 PM-14 °C-18 °C72 %1016.3 hPa8 kmNNW (340°)33.3 km/hHaze
1:55 PM-15 °C-18 °C78 %1016.9 hPa14.5 kmNorth (350°)29.6 km/h38.9 km/hPartly Cloudy
2:15 PM-15 °C-18 °C78 %1016.9 hPa4 kmNorth (360°)35.2 km/h44.4 km/hHaze
2:35 PM-15 °C-18 °C78 %1017.3 hPa4.8 kmNorth (360°)42.6 km/hHaze
2:55 PM-15 °C-19 °C72 %1017.6 hPa6.4 kmNorth (350°)37 km/hHaze
3:15 PM-15 °C-19 °C72 %1017.9 hPa8 kmNNW (340°)31.5 km/hHaze
3:35 PM-15 °C-18 °C78 %1018.3 hPa11.3 kmNorth (350°)37 km/h42.6 km/hOvercast
3:55 PM-15 °C-18 °C78 %1018.6 hPa4.8 kmNorth (350°)37 km/h46.3 km/hHaze
4:15 PM-15 °C-18 °C78 %1019 hPa8 kmNorth (350°)33.3 km/hSnowLight Snow
4:35 PM-16 °C-19 °C78 %1019.3 hPa16.1 kmNNW (340°)27.8 km/h35.2 km/hOvercast
4:55 PM-16 °C-19 °C78 %1019.3 hPa16.1 kmNNW (340°)33.3 km/hOvercast
5:15 PM-17 °C-20 °C78 %1020 hPa16.1 kmNW (320°)24.1 km/hOvercast
5:35 PM-17 °C-20 °C78 %1020.3 hPa16.1 kmNW (320°)25.9 km/hMostly Cloudy
5:55 PM-18 °C-21 °C78 %1020.3 hPa16.1 kmNW (320°)27.8 km/hScattered Clouds
6:15 PM-18 °C-22 °C72 %1020.7 hPa16.1 kmNW (320°)22.2 km/hClear
6:35 PM-18 °C-21 °C78 %1021 hPa16.1 kmNNW (330°)31.5 km/h37 km/hClear
6:55 PM-18 °C-22 °C72 %1021.3 hPa16.1 kmNNW (330°)25.9 km/h33.3 km/hClear
7:15 PM-19 °C-22 °C78 %1021.7 hPa16.1 kmNNW (330°)25.9 km/hClear
7:35 PM-19 °C-23 °C71 %1021.7 hPa16.1 kmNNW (330°)24.1 km/hClear
7:55 PM-20 °C-24 °C71 %1021.7 hPa16.1 kmNNW (330°)24.1 km/hClear
8:15 PM-20 °C-23 °C78 %1022 hPa16.1 kmNNW (330°)27.8 km/hClear
8:35 PM-20 °C-24 °C71 %1022 hPa16.1 kmNNW (330°)22.2 km/hClear
8:55 PM-22 °C-25 °C77 %1022.4 hPa16.1 kmNW (310°)22.2 km/hClear
9:15 PM-22 °C-25 °C77 %1022.7 hPa16.1 kmNW (320°)16.7 km/hClear
9:35 PM-23 °C-26 °C77 %1022.7 hPa16.1 kmNNW (340°)20.4 km/hClear
9:55 PM-22 °C-25 °C77 %1023 hPa16.1 kmNNW (330°)22.2 km/hClear
10:15 PM-23 °C-26 °C77 %1023.4 hPa16.1 kmNNW (330°)25.9 km/hClear
10:35 PM-22 °C-26 °C71 %1023.7 hPa16.1 kmNNW (340°)18.5 km/hClear
10:55 PM-23 °C-26 °C77 %1024 hPa16.1 kmNNW (340°)18.5 km/hClear
11:15 PM-23 °C-27 °C71 %1024.4 hPa16.1 kmNNW (340°)18.5 km/hClear
11:35 PM-23 °C-27 °C71 %1024.7 hPa16.1 kmNNW (340°)16.7 km/hClear
11:55 PM-24 °C-28 °C70 %1024.7 hPa16.1 kmNNW (330°)16.7 km/hClear
Hourly data recorded from KRUG, located 0 kilometers away from Bantry, North Dakota







STORIES FROM OUR PARTNERS